This is the latest recevied weather packets stored in our database for station/object HB9TJM-8. If no packets are shown the sender has not sent any weather packets the latest 10 day(s).
| Time | Temp. | Humidity | Pressure | Rain* | Wind** | Luminosity | Snow |
|---|---|---|---|---|---|---|---|
| 1777886875 | 12.22° C | 78% | 1015.7 hPa | 0.51 mm | - | 131 W/m² | - |
| 1777886568 | 12.22° C | 75% | 1015.9 hPa | 0.51 mm | - | 147 W/m² | - |
| 1777886261 | 12.22° C | 77% | 1015.7 hPa | 0.51 mm | - | 149 W/m² | - |
| 1777885953 | 12.22° C | 73% | 1015.5 hPa | 0.51 mm | - | 152 W/m² | - |
| 1777885646 | 12.22° C | 70% | 1015.4 hPa | 0.25 mm | - | 119 W/m² | - |
| 1777885339 | 12.78° C | 69% | 1015.9 hPa | 0.25 mm | - | 128 W/m² | - |
| 1777885031 | 12.78° C | 73% | 1015.7 hPa | 0.25 mm | - | 158 W/m² | - |
| 1777884417 | 12.78° C | 75% | 1015.6 hPa | 0.25 mm | - | 226 W/m² | - |
| 1777884110 | 12.22° C | 74% | 1015.5 hPa | 0.25 mm | - | 230 W/m² | - |
| 1777883803 | 11.67° C | 78% | 1015.6 hPa | 0.25 mm | - | 217 W/m² | - |
| 1777883803 | 11.67° C | 78% | 1015.6 hPa | 0.25 mm | - | 217 W/m² | - |
| 1777883496 | 11.67° C | 79% | 1015.4 hPa | 0.25 mm | - | 190 W/m² | - |
| 1777883189 | 12.22° C | 76% | 1015.7 hPa | 0 mm | - | 135 W/m² | - |
| 1777882881 | 12.22° C | 74% | 1015.4 hPa | 0 mm | - | 150 W/m² | - |
| 1777882881 | 12.22° C | 74% | 1015.4 hPa | 0 mm | - | 150 W/m² | - |
| 1777882574 | 12.22° C | 74% | 1015.6 hPa | 0 mm | - | 157 W/m² | - |
| 1777882267 | 12.22° C | 73% | 1015.3 hPa | 0 mm | - | 160 W/m² | - |
| 1777881959 | 12.22° C | 72% | 1015.6 hPa | 0 mm | - | 115 W/m² | - |
| 1777881652 | 12.22° C | 73% | 1015.4 hPa | 0 mm | - | 137 W/m² | - |
| 1777881345 | 12.22° C | 74% | 1015.7 hPa | 0 mm | - | 192 W/m² | - |
| 1777881037 | 12.22° C | 74% | 1015 hPa | 0 mm | - | 172 W/m² | - |
| 1777880729 | 12.22° C | 76% | 1015.6 hPa | 0 mm | - | 185 W/m² | - |
| 1777880422 | 11.67° C | 75% | 1015.9 hPa | 0 mm | - | 231 W/m² | - |
| 1777880115 | 11.67° C | 81% | 1015.7 hPa | 0 mm | - | 191 W/m² | - |
| 1777879808 | 11.67° C | 78% | 1015.9 hPa | 0 mm | - | 144 W/m² | - |
* Rain latest hour (hover to see other rain measurements)
** Current wind speed in m/s (hover to see current wind gust speed)